This is the latest recevied weather packets stored in our database for station/object K1AWR. If no packets are shown the sender has not sent any weather packets the latest 10 day(s).
| Time | Temp. | Humidity | Pressure | Rain* | Wind** | Luminosity | Snow |
|---|---|---|---|---|---|---|---|
| 1777711381 | 8.89° C | 90% | 1011.9 hPa | 0 mm | - | 0 W/m² | - |
| 1777711077 | 8.89° C | 90% | 1011.7 hPa | 0 mm | - | 0 W/m² | - |
| 1777710774 | 8.89° C | 89% | 1012 hPa | 0 mm | - | 0 W/m² | - |
| 1777710472 | 8.89° C | 89% | 1011.9 hPa | 0 mm | - | 0 W/m² | - |
| 1777710169 | 8.89° C | 88% | 1012 hPa | 0 mm | - | 0 W/m² | - |
| 1777709866 | 8.89° C | 88% | 1011.7 hPa | 0 mm | - | 0 W/m² | - |
| 1777709563 | 8.89° C | 88% | 1011.7 hPa | 0 mm | - | 0 W/m² | - |
| 1777709261 | 8.89° C | 87% | 1012.2 hPa | 0 mm | - | 0 W/m² | - |
| 1777708958 | 8.89° C | 87% | 1012.2 hPa | 0 mm | - | 0 W/m² | - |
| 1777708656 | 9.44° C | 87% | 1012.2 hPa | 0 mm | - | 0 W/m² | - |
| 1777708353 | 9.44° C | 85% | 1012.2 hPa | 0 mm | - | 0 W/m² | - |
| 1777708050 | 9.44° C | 83% | 1012.1 hPa | 0 mm | - | 0 W/m² | - |
| 1777707748 | 9.44° C | 82% | 1011.8 hPa | 0 mm | - | 0 W/m² | - |
| 1777707443 | 9.44° C | 82% | 1011.7 hPa | 0 mm | - | 0 W/m² | - |
| 1777707140 | 9.44° C | 83% | 1011.9 hPa | 0 mm | - | 0 W/m² | - |
| 1777706838 | 9.44° C | 82% | 1011.8 hPa | 0 mm | - | 0 W/m² | - |
| 1777706535 | 10° C | 81% | 1011.7 hPa | 0 mm | - | 0 W/m² | - |
| 1777706233 | 10° C | 78% | 1011.7 hPa | 0 mm | - | 0 W/m² | - |
| 1777705930 | 10° C | 79% | 1011.8 hPa | 0 mm | - | 0 W/m² | - |
| 1777705629 | 10° C | 78% | 1012 hPa | 0 mm | - | 0 W/m² | - |
| 1777705326 | 10° C | 78% | 1012.2 hPa | 0 mm | - | 0 W/m² | - |
| 1777705024 | 10° C | 79% | 1012.1 hPa | 0 mm | - | 0 W/m² | - |
| 1777704721 | 10° C | 76% | 1011.8 hPa | 0 mm | - | 0 W/m² | - |
| 1777704420 | 10° C | 75% | 1011.7 hPa | 0 mm | - | 0 W/m² | - |
| 1777704117 | 10° C | 78% | 1012 hPa | 0 mm | - | 0 W/m² | - |
* Rain latest hour (hover to see other rain measurements)
** Current wind speed in m/s (hover to see current wind gust speed)